Total_Precipitation_Accumulation
0.07 0.07 0.08 0.10 0.07 0.05 0.01 0.00 0.00 0.00 0.00 0.00 0.00 0.00 0.00 0.00 0.00 0.02 0.03 0.03 0.04 0.06 0.11 0.24 0.37 0.40 0.49 0.54 0.51 0.42 0.36 0.33 0.37 0.38 0.36 0.35 0.36 0.40 0.46 0.52 0.55 0.60 0.66 0.67 0.66 0.80 0.85 0.86 0.78
0.07 0.09 0.12 0.12 0.06 0.02 0.00 0.00 0.00 0.00 0.00 0.00 0.00 0.00 0.00 0.00 0.01 0.02 0.04 0.04 0.05 0.07 0.09 0.17 0.32 0.39 0.46 0.49 0.47 0.42 0.38 0.35 0.35 0.34 0.35 0.37 0.39 0.41 0.46 0.52 0.58 0.63 0.73 0.75 0.79 0.85 0.82 0.81 0.73
0.12 0.14 0.15 0.13 0.05 0.01 0.00 0.00 0.00 0.00 0.00 0.00 0.00 0.01 0.01 0.01 0.01 0.03 0.03 0.04 0.06 0.08 0.13 0.22 0.30 0.39 0.45 0.46 0.46 0.44 0.40 0.35 0.34 0.34 0.35 0.39 0.42 0.44 0.45 0.47 0.54 0.62 0.72 0.73 0.73 0.79 0.75 0.72 0.69
0.20 0.24 0.18 0.12 0.03 0.01 0.00 0.00 0.00 0.00 0.00 0.00 0.00 0.01 0.03 0.01 0.01 0.02 0.04 0.05 0.07 0.08 0.14 0.25 0.34 0.42 0.45 0.46 0.51 0.51 0.45 0.41 0.38 0.37 0.39 0.41 0.45 0.47 0.46 0.44 0.43 0.49 0.56 0.59 0.63 0.69 0.68 0.65 0.59
0.25 0.26 0.19 0.09 0.03 0.01 0.00 0.00 0.00 0.00 0.00 0.00 0.01 0.01 0.03 0.03 0.02 0.03 0.05 0.06 0.08 0.11 0.15 0.24 0.39 0.50 0.50 0.48 0.52 0.54 0.48 0.45 0.42 0.43 0.46 0.46 0.47 0.50 0.47 0.39 0.38 0.40 0.42 0.46 0.55 0.65 0.68 0.66 0.57
0.30 0.26 0.17 0.07 0.02 0.01 0.01 0.01 0.01 0.00 0.00 0.00 0.01 0.02 0.04 0.06 0.04 0.04 0.05 0.07 0.10 0.13 0.17 0.28 0.45 0.57 0.56 0.53 0.53 0.60 0.54 0.51 0.47 0.47 0.49 0.51 0.52 0.53 0.51 0.43 0.38 0.36 0.35 0.39 0.45 0.57 0.71 0.70 0.58
0.31 0.25 0.12 0.06 0.04 0.02 0.01 0.01 0.02 0.02 0.01 0.00 0.01 0.03 0.06 0.07 0.06 0.06 0.07 0.08 0.12 0.16 0.21 0.30 0.46 0.57 0.59 0.57 0.59 0.64 0.60 0.59 0.56 0.54 0.53 0.50 0.52 0.53 0.55 0.52 0.47 0.44 0.42 0.42 0.43 0.50 0.67 0.70 0.61
0.32 0.33 0.16 0.06 0.05 0.03 0.01 0.01 0.02 0.02 0.02 0.01 0.01 0.04 0.05 0.06 0.08 0.09 0.12 0.14 0.16 0.19 0.26 0.36 0.47 0.59 0.61 0.57 0.57 0.62 0.62 0.64 0.61 0.57 0.48 0.41 0.43 0.50 0.50 0.47 0.45 0.45 0.46 0.47 0.42 0.44 0.54 0.61 0.58
0.42 0.43 0.21 0.07 0.04 0.03 0.01 0.01 0.02 0.02 0.03 0.02 0.02 0.03 0.03 0.05 0.11 0.15 0.18 0.21 0.23 0.26 0.34 0.46 0.58 0.64 0.60 0.58 0.53 0.62 0.67 0.67 0.62 0.54 0.44 0.40 0.41 0.43 0.41 0.35 0.35 0.42 0.47 0.48 0.46 0.47 0.51 0.55 0.50
0.55 0.41 0.20 0.09 0.05 0.05 0.03 0.03 0.04 0.04 0.04 0.05 0.04 0.04 0.06 0.09 0.14 0.17 0.18 0.19 0.23 0.29 0.41 0.49 0.65 0.72 0.64 0.56 0.57 0.66 0.66 0.65 0.57 0.45 0.42 0.43 0.45 0.47 0.43 0.37 0.34 0.41 0.45 0.49 0.53 0.55 0.54 0.51 0.46
0.51 0.33 0.17 0.11 0.09 0.09 0.07 0.06 0.06 0.06 0.06 0.04 0.04 0.06 0.09 0.13 0.15 0.15 0.16 0.17 0.21 0.28 0.44 0.56 0.69 0.84 0.75 0.64 0.59 0.63 0.66 0.68 0.64 0.54 0.48 0.50 0.54 0.54 0.51 0.48 0.46 0.44 0.44 0.47 0.50 0.56 0.52 0.53 0.64
0.45 0.26 0.15 0.12 0.12 0.15 0.14 0.10 0.09 0.10 0.07 0.05 0.05 0.08 0.12 0.10 0.12 0.14 0.16 0.19 0.24 0.30 0.41 0.57 0.66 0.81 0.86 0.78 0.70 0.60 0.57 0.59 0.62 0.63 0.58 0.57 0.54 0.49 0.46 0.42 0.40 0.43 0.43 0.45 0.47 0.49 0.52 0.53 0.58
0.39 0.29 0.19 0.14 0.14 0.16 0.17 0.15 0.12 0.10 0.07 0.07 0.11 0.13 0.12 0.11 0.12 0.14 0.17 0.19 0.24 0.29 0.35 0.50 0.57 0.65 0.75 0.82 0.78 0.71 0.63 0.58 0.56 0.60 0.61 0.57 0.52 0.49 0.44 0.40 0.40 0.39 0.39 0.40 0.42 0.40 0.43 0.49 0.52
0.37 0.30 0.26 0.20 0.18 0.20 0.19 0.17 0.15 0.11 0.10 0.12 0.13 0.13 0.14 0.14 0.14 0.16 0.18 0.19 0.22 0.28 0.35 0.44 0.52 0.56 0.64 0.66 0.69 0.71 0.70 0.68 0.66 0.64 0.61 0.62 0.54 0.48 0.44 0.40 0.36 0.36 0.37 0.37 0.38 0.39 0.41 0.44 0.46
0.37 0.38 0.32 0.25 0.23 0.24 0.26 0.24 0.17 0.12 0.13 0.13 0.14 0.15 0.17 0.17 0.17 0.19 0.19 0.19 0.22 0.28 0.36 0.43 0.49 0.51 0.56 0.59 0.63 0.66 0.67 0.70 0.68 0.65 0.61 0.63 0.63 0.54 0.49 0.45 0.40 0.35 0.36 0.42 0.49 0.51 0.51 0.53 0.55
0.50 0.54 0.47 0.28 0.22 0.26 0.37 0.29 0.16 0.14 0.14 0.13 0.13 0.15 0.19 0.19 0.19 0.21 0.25 0.25 0.25 0.28 0.35 0.43 0.48 0.52 0.55 0.61 0.66 0.71 0.70 0.72 0.66 0.68 0.68 0.62 0.64 0.66 0.63 0.58 0.50 0.41 0.39 0.44 0.51 0.59 0.62 0.57 0.58
0.73 0.60 0.43 0.29 0.22 0.27 0.38 0.29 0.14 0.15 0.16 0.13 0.12 0.14 0.16 0.18 0.19 0.20 0.24 0.25 0.27 0.28 0.34 0.43 0.47 0.50 0.56 0.68 0.77 0.76 0.81 0.83 0.76 0.74 0.77 0.68 0.64 0.65 0.68 0.71 0.68 0.58 0.52 0.50 0.51 0.51 0.54 0.58 0.63
0.60 0.44 0.33 0.28 0.25 0.28 0.32 0.22 0.14 0.16 0.17 0.14 0.12 0.15 0.16 0.17 0.18 0.20 0.23 0.25 0.31 0.34 0.36 0.42 0.53 0.61 0.66 0.77 0.88 0.88 0.84 0.85 0.85 0.80 0.80 0.72 0.69 0.66 0.66 0.70 0.71 0.70 0.68 0.63 0.59 0.56 0.53 0.53 0.58
0.43 0.40 0.33 0.25 0.25 0.36 0.31 0.20 0.14 0.16 0.19 0.17 0.14 0.15 0.16 0.18 0.19 0.23 0.26 0.28 0.31 0.37 0.39 0.41 0.50 0.66 0.75 0.78 0.83 0.87 0.74 0.78 0.85 0.82 0.79 0.81 0.68 0.67 0.67 0.64 0.65 0.66 0.67 0.67 0.67 0.62 0.57 0.51 0.52
0.53 0.49 0.37 0.28 0.25 0.38 0.36 0.25 0.17 0.15 0.18 0.17 0.15 0.14 0.15 0.18 0.20 0.25 0.29 0.32 0.30 0.34 0.39 0.41 0.44 0.57 0.67 0.68 0.75 0.88 0.85 0.82 0.92 0.90 0.84 0.91 0.76 0.64 0.64 0.64 0.63 0.64 0.64 0.62 0.62 0.63 0.62 0.54 0.50
0.62 0.52 0.40 0.39 0.35 0.40 0.42 0.34 0.20 0.15 0.15 0.16 0.15 0.13 0.13 0.15 0.17 0.22 0.29 0.32 0.33 0.32 0.33 0.37 0.42 0.50 0.62 0.75 0.84 0.95 1.11 1.03 0.98 0.96 0.89 0.96 0.95 0.72 0.62 0.61 0.64 0.64 0.64 0.61 0.55 0.56 0.61 0.60 0.55
0.58 0.40 0.37 0.46 0.62 0.62 0.52 0.53 0.26 0.18 0.16 0.16 0.16 0.14 0.14 0.14 0.15 0.19 0.26 0.30 0.33 0.32 0.33 0.36 0.43 0.46 0.54 0.72 0.84 0.83 0.90 0.93 0.79 0.76 0.83 0.91 1.05 0.92 0.67 0.60 0.61 0.60 0.60 0.59 0.59 0.56 0.57 0.60 0.60
0.45 0.35 0.43 0.53 0.73 0.72 0.51 0.56 0.32 0.22 0.23 0.19 0.16 0.14 0.14 0.13 0.14 0.17 0.23 0.28 0.34 0.36 0.35 0.38 0.48 0.51 0.51 0.61 0.74 0.80 0.82 0.83 0.86 0.79 0.77 0.86 0.96 1.02 0.90 0.68 0.64 0.63 0.61 0.58 0.59 0.60 0.61 0.61 0.60
0.52 0.60 0.73 0.80 1.05 1.07 0.44 0.41 0.35 0.26 0.24 0.20 0.17 0.13 0.13 0.14 0.16 0.19 0.25 0.32 0.40 0.44 0.42 0.41 0.47 0.51 0.52 0.58 0.69 0.75 0.77 0.81 0.90 0.89 0.77 0.77 0.88 0.97 1.00 0.88 0.71 0.67 0.63 0.59 0.58 0.58 0.60 0.62 0.62
0.88 1.28 1.81 1.90 1.69 0.93 0.28 0.29 0.33 0.26 0.24 0.25 0.23 0.18 0.14 0.16 0.19 0.20 0.23 0.29 0.39 0.45 0.42 0.41 0.44 0.51 0.55 0.59 0.63 0.67 0.74 0.79 0.81 0.87 0.84 0.80 0.81 0.89 0.95 0.94 0.82 0.71 0.69 0.66 0.65 0.66 0.64 0.64 0.66
0.87 1.08 1.39 1.39 0.96 0.46 0.24 0.26 0.26 0.23 0.19 0.20 0.21 0.20 0.18 0.17 0.19 0.20 0.18 0.20 0.28 0.37 0.41 0.41 0.40 0.44 0.54 0.60 0.60 0.64 0.71 0.80 0.79 0.80 0.86 0.85 0.80 0.83 0.95 0.98 0.93 0.83 0.80 0.81 0.81 0.81 0.78 0.77 0.76
0.86 0.84 0.69 0.89 0.67 0.50 0.33 0.24 0.19 0.13 0.13 0.16 0.18 0.21 0.24 0.20 0.19 0.18 0.18 0.19 0.22 0.28 0.34 0.42 0.42 0.43 0.45 0.55 0.65 0.66 0.68 0.74 0.75 0.74 0.77 0.80 0.79 0.78 0.83 0.93 1.00 1.02 1.00 0.97 1.00 1.00 0.95 0.93 0.89
0.69 0.81 0.92 1.23 1.12 0.67 0.34 0.24 0.27 0.20 0.16 0.18 0.20 0.23 0.29 0.26 0.22 0.20 0.19 0.20 0.23 0.27 0.30 0.38 0.47 0.47 0.48 0.48 0.59 0.68 0.68 0.72 0.77 0.78 0.74 0.77 0.82 0.84 0.81 0.84 0.89 0.97 1.03 1.03 1.01 1.01 1.01 1.03 1.02
0.63 0.88 1.16 1.21 0.97 0.74 0.45 0.33 0.34 0.28 0.22 0.22 0.24 0.25 0.33 0.35 0.32 0.28 0.22 0.22 0.24 0.30 0.33 0.34 0.44 0.51 0.55 0.53 0.55 0.65 0.72 0.73 0.79 0.85 0.84 0.82 0.87 0.92 0.89 0.86 0.83 0.82 0.88 1.00 1.07 1.06 1.08 1.09 1.04
0.54 0.67 0.90 1.19 0.93 0.62 0.52 0.36 0.28 0.25 0.23 0.23 0.24 0.27 0.31 0.35 0.36 0.30 0.25 0.27 0.30 0.35 0.37 0.38 0.44 0.48 0.57 0.61 0.61 0.64 0.74 0.78 0.80 0.85 0.91 0.92 0.94 0.98 0.97 0.96 0.91 0.82 0.78 0.88 0.98 1.03 1.06 1.09 1.07